When you browse on this site, cookies collect data to enhance your experience and personalize the content and advertising you see.
Visit our Privacy Policy to learn more. By continuing to use the site, you agree to this use of cookies and data.
  • In Hungary
  • List of Countries
  • For 7 days
  • Water Temperature
  • Weather Map
  • News
  • Weather Widgets
  • user-avatar
    Login

    Hourly Weather Maloekaterinovka

    Today, 19 October, Saturday

    Time Temperature Precipitation Wind Pressure Humidity
    00:00 +14°C° 0 mm 2 mps 753 mmHg 80%
    01:00 +14°C° 0 mm 2 mps 753 mmHg 81%
    02:00 +14°C° 0 mm 2 mps 753 mmHg 82%
    03:00 +13°C° 0 mm 1 mps 754 mmHg 81%
    04:00 +12°C° 0 mm 1 mps 754 mmHg 80%
    05:00 +12°C° 0 mm 1 mps 754 mmHg 79%
    06:00 +12°C° 0 mm 1 mps 754 mmHg 78%
    07:00 +13°C° 0 mm 2 mps 754 mmHg 73%
    08:00 +14°C° 0 mm 2 mps 755 mmHg 67%
    09:00 +15°C° 0 mm 2 mps 755 mmHg 62%
    10:00 +17°C° 0 mm 2 mps 755 mmHg 56%
    11:00 +18°C° 0 mm 2 mps 755 mmHg 51%
    12:00 +20°C° 0 mm 3 mps 755 mmHg 45%
    13:00 +20°C° 0 mm 2 mps 755 mmHg 43%
    14:00 +21°C° 0 mm 2 mps 755 mmHg 40%
    15:00 +23°C° 0 mm 2 mps 755 mmHg 38%
    16:00 +20°C° 0 mm 2 mps 755 mmHg 41%
    17:00 +19°C° 0 mm 2 mps 755 mmHg 45%
    18:00 +19°C° 0 mm 1 mps 755 mmHg 49%
    19:00 +17°C° 0 mm 2 mps 755 mmHg 51%
    20:00 +17°C° 0 mm 2 mps 755 mmHg 54%
    21:00 +16°C° 0 mm 2 mps 756 mmHg 56%
    22:00 +15°C° 0 mm 2 mps 756 mmHg 58%
    23:00 +15°C° 0 mm 2 mps 756 mmHg 61%

    Tomorrow, 20 October, Sunday

    Time Temperature Precipitation Wind Pressure Humidity
    00:00 +14°C° 0 mm 2 mps 756 mmHg 63%
    01:00 +14°C° 0 mm 2 mps 756 mmHg 65%
    02:00 +14°C° 0 mm 2 mps 756 mmHg 67%
    03:00 +13°C° 0 mm 2 mps 756 mmHg 69%
    04:00 +13°C° 0 mm 2 mps 756 mmHg 70%
    05:00 +13°C° 0 mm 2 mps 757 mmHg 72%
    06:00 +11°C° 0 mm 3 mps 757 mmHg 74%
    07:00 +12°C° 0 mm 3 mps 757 mmHg 70%
    08:00 +13°C° 0 mm 3 mps 757 mmHg 65%
    09:00 +14°C° 0 mm 3 mps 757 mmHg 61%
    10:00 +17°C° 0 mm 3 mps 757 mmHg 56%
    11:00 +19°C° 0 mm 3 mps 757 mmHg 50%
    12:00 +20°C° 0 mm 3 mps 758 mmHg 44%
    13:00 +21°C° 0 mm 3 mps 757 mmHg 42%
    14:00 +22°C° 0 mm 3 mps 757 mmHg 40%
    15:00 +22°C° 0 mm 3 mps 757 mmHg 38%
    16:00 +21°C° 0 mm 3 mps 757 mmHg 43%
    17:00 +19°C° 0 mm 3 mps 757 mmHg 47%
    18:00 +18°C° 0 mm 3 mps 757 mmHg 52%
    19:00 +18°C° 0 mm 3 mps 757 mmHg 55%
    20:00 +17°C° 0 mm 3 mps 757 mmHg 58%
    21:00 +16°C° 0 mm 3 mps 758 mmHg 61%
    22:00 +16°C° 0 mm 3 mps 758 mmHg 63%
    23:00 +14°C° 0 mm 3 mps 758 mmHg 65%

    Day after tomorrow, 21 October, Monday

    Time Temperature Precipitation Wind Pressure Humidity
    00:00 +14°C° 0 mm 3 mps 758 mmHg 67%
    01:00 +13°C° 0 mm 3 mps 758 mmHg 68%
    02:00 +13°C° 0 mm 3 mps 758 mmHg 70%
    03:00 +12°C° 0 mm 3 mps 758 mmHg 71%
    04:00 +12°C° 0 mm 3 mps 758 mmHg 72%
    05:00 +12°C° 0 mm 3 mps 758 mmHg 74%
    06:00 +11°C° 0 mm 3 mps 758 mmHg 75%
    07:00 +12°C° 0 mm 3 mps 758 mmHg 73%
    08:00 +13°C° 0 mm 4 mps 758 mmHg 70%
    09:00 +14°C° 0 mm 4 mps 759 mmHg 67%
    10:00 +17°C° 0 mm 4 mps 759 mmHg 60%
    11:00 +18°C° 0 mm 4 mps 759 mmHg 53%
    12:00 +20°C° 0 mm 5 mps 759 mmHg 45%
    13:00 +20°C° 0 mm 4 mps 758 mmHg 44%
    14:00 +21°C° 0 mm 4 mps 758 mmHg 42%
    15:00 +21°C° 0 mm 4 mps 758 mmHg 41%
    16:00 +20°C° 0 mm 4 mps 758 mmHg 45%
    17:00 +19°C° 0 mm 3 mps 758 mmHg 50%
    18:00 +18°C° 0 mm 3 mps 758 mmHg 54%
    19:00 +17°C° 0 mm 3 mps 758 mmHg 57%
    20:00 +16°C° 0 mm 3 mps 758 mmHg 59%
    21:00 +14°C° 0 mm 3 mps 758 mmHg 61%
    22:00 +14°C° 0 mm 3 mps 758 mmHg 63%
    23:00 +13°C° 0 mm 3 mps 758 mmHg 65%

    22 October, Tuesday

    Time Temperature Precipitation Wind Pressure Humidity
    00:00 +14°C° 0 mm 2 mps 758 mmHg 67%
    01:00 +13°C° 0 mm 2 mps 758 mmHg 69%
    02:00 +13°C° 0 mm 2 mps 758 mmHg 71%
    03:00 +13°C° 0 mm 2 mps 758 mmHg 72%
    04:00 +12°C° 0 mm 2 mps 758 mmHg 73%
    05:00 +12°C° 0 mm 2 mps 758 mmHg 74%
    06:00 +12°C° 0 mm 2 mps 758 mmHg 74%
    07:00 +13°C° 0 mm 2 mps 758 mmHg 70%
    08:00 +13°C° 0 mm 2 mps 758 mmHg 65%
    09:00 +14°C° 0 mm 2 mps 759 mmHg 61%
    10:00 +16°C° 0 mm 3 mps 759 mmHg 54%
    11:00 +18°C° 0 mm 3 mps 759 mmHg 48%
    12:00 +19°C° 0 mm 3 mps 759 mmHg 42%
    13:00 +20°C° 0 mm 3 mps 758 mmHg 40%
    14:00 +20°C° 0 mm 2 mps 758 mmHg 37%
    15:00 +21°C° 0 mm 2 mps 758 mmHg 35%
    16:00 +20°C° 0 mm 2 mps 758 mmHg 38%
    17:00 +19°C° 0 mm 2 mps 758 mmHg 42%
    18:00 +17°C° 0 mm 2 mps 758 mmHg 45%
    19:00 +17°C° 0 mm 2 mps 758 mmHg 47%
    20:00 +16°C° 0 mm 2 mps 758 mmHg 50%
    21:00 +16°C° 0 mm 2 mps 758 mmHg 52%
    22:00 +15°C° 0 mm 2 mps 758 mmHg 54%
    23:00 +15°C° 0 mm 1 mps 758 mmHg 56%

    23 October, Wednesday

    Time Temperature Precipitation Wind Pressure Humidity
    00:00 +14°C° 0 mm 1 mps 757 mmHg 59%
    01:00 +14°C° 0 mm 1 mps 757 mmHg 60%
    02:00 +13°C° 0 mm 1 mps 757 mmHg 61%
    03:00 +13°C° 0 mm 1 mps 757 mmHg 63%
    04:00 +13°C° 0 mm 1 mps 757 mmHg 64%
    05:00 +12°C° 0 mm 1 mps 757 mmHg 65%
    06:00 +12°C° 0 mm 1 mps 757 mmHg 66%
    07:00 +13°C° 0 mm 1 mps 758 mmHg 62%
    08:00 +14°C° 0 mm 1 mps 758 mmHg 59%
    09:00 +15°C° 0 mm 1 mps 758 mmHg 55%
    10:00 +17°C° 0 mm 2 mps 758 mmHg 50%
    11:00 +18°C° 0 mm 2 mps 758 mmHg 45%
    12:00 +20°C° 0 mm 2 mps 758 mmHg 39%
    13:00 +20°C° 0 mm 2 mps 757 mmHg 38%
    14:00 +20°C° 0 mm 2 mps 757 mmHg 36%
    15:00 +21°C° 0 mm 2 mps 757 mmHg 34%
    16:00 +21°C° 0 mm 1 mps 757 mmHg 38%
    17:00 +19°C° 0 mm 1 mps 756 mmHg 41%
    18:00 +18°C° 0 mm 1 mps 756 mmHg 44%
    19:00 +18°C° 0 mm 1 mps 756 mmHg 46%
    20:00 +16°C° 0 mm 1 mps 756 mmHg 47%
    21:00 +16°C° 0 mm 1 mps 757 mmHg 49%
    22:00 +15°C° 0 mm 1 mps 756 mmHg 50%
    23:00 +15°C° 0 mm 1 mps 756 mmHg 52%

    24 October, Thursday

    Time Temperature Precipitation Wind Pressure Humidity
    00:00 +14°C° 0 mm 1 mps 756 mmHg 53%
    01:00 +14°C° 0 mm 1 mps 756 mmHg 54%
    02:00 +14°C° 0 mm 1 mps 756 mmHg 55%
    03:00 +13°C° 0 mm 1 mps 756 mmHg 56%
    04:00 +13°C° 0 mm 1 mps 756 mmHg 57%
    05:00 +13°C° 0 mm 1 mps 756 mmHg 58%
    06:00 +12°C° 0 mm 1 mps 756 mmHg 59%
    07:00 +13°C° 0 mm 1 mps 756 mmHg 56%
    08:00 +14°C° 0 mm 1 mps 756 mmHg 53%
    09:00 +15°C° 0 mm 1 mps 756 mmHg 50%
    10:00 +18°C° 0 mm 1 mps 756 mmHg 45%
    11:00 +19°C° 0 mm 1 mps 756 mmHg 40%
    12:00 +20°C° 0 mm 2 mps 756 mmHg 35%
    13:00 +21°C° 0 mm 1 mps 756 mmHg 34%
    14:00 +22°C° 0 mm 1 mps 756 mmHg 32%
    15:00 +23°C° 0 mm 1 mps 755 mmHg 30%
    16:00 +21°C° 0 mm 1 mps 755 mmHg 34%
    17:00 +20°C° 0 mm 1 mps 755 mmHg 37%
    18:00 +19°C° 0 mm 1 mps 755 mmHg 40%
    19:00 +18°C° 0 mm 1 mps 755 mmHg 41%
    20:00 +18°C° 0 mm 1 mps 755 mmHg 43%
    21:00 +16°C° 0 mm 1 mps 755 mmHg 44%
    22:00 +16°C° 0 mm 1 mps 755 mmHg 46%
    23:00 +15°C° 0 mm 1 mps 755 mmHg 47%
    Show more